Regional Weather Roundup
Issued by NWS

Current Version | Previous Version | Text Only | Print | Product List | Glossary On
Versions: 1 2 3 4 5 6 7 8 9 10 11 12 13 14 15 16 17 18 19 20 21 22 23 24 25 26 27 28 29 30 31 32 33 34 35 36 37 38 39 40 41 42 43 44 45 46 47 48 49 50
000
ASUS44 KOUN 081410
RWROK

WEATHER ROUNDUP FOR OKLAHOMA
NATIONAL WEATHER SERVICE NORMAN OK
800 AM CST MON FEB 08 2016

NOTE: "FAIR" INDICATES FEW OR NO CLOUDS BELOW 12,000 FEET WITH NO
      SIGNIFICANT WEATHER AND/OR OBSTRUCTIONS TO VISIBILITY.

OKZ001>007-009>012-014-015-017-081500-
NORTHWEST OKLAHOMA AND THE PANHANDLE

CITY           SKY/WX    TMP DP  RH WIND       PRES   REMARKS
GAGE           CLEAR     31  12  45 NW16      30.36S WCI  20
GUYMON         CLEAR     28  11  48 W13       30.42R WCI  17
ENID/WOODRING  CLEAR     34  18  51 W18       30.26S WCI  23
$$

OKZ016-021>023-033>039-044-045-081500-
SOUTHWEST OKLAHOMA

CITY           SKY/WX    TMP DP  RH WIND       PRES   REMARKS
LAWTON/REGL    CLEAR     34  18  52 NW8       30.36S WCI  27
LAWTON/FT SILL CLEAR     37  17  42 NW14      30.34R WCI  29
FREDERICK      CLEAR     34  18  52 NW16      30.37R WCI  24
CLINTON        PTCLDY    33  13  43 NW17      30.37R WCI  22
HOBART         CLEAR     30  18  60 NW14      30.38R WCI  19
ALTUS AFB      CLEAR     33  14  45 NW10      30.40R WCI  25
$$

OKZ018>020-024>031-081500-
CENTRAL OKLAHOMA

CITY           SKY/WX    TMP DP  RH WIND       PRES   REMARKS
OKLAHOMA CITY  CLEAR     36  16  44 NW15G25   30.29R WCI  27
OKC/WILEY POST CLEAR     36  16  44 NW15G23   30.30R WCI  27
OKC/TINKER AFB CLEAR     36  15  42 NW18      30.27R WCI  26
STILLWATER     CLEAR     35  16  45 NW18G25   30.24R WCI  24
GUTHRIE        CLEAR     35  15  44 NW15G23   30.27S WCI  25
$$

OKZ008-013-054>072-081500-
NORTHEAST OKLAHOMA

CITY           SKY/WX    TMP DP  RH WIND       PRES   REMARKS
TULSA          PTCLDY    35  21  56 W17G23    30.18S WCI  25
TULSA/JONES    CLEAR     37  19  48 NW10G18   30.20S WCI  30
PONCA CITY     CLEAR     35  17  47 NW16G26   30.22R WCI  25
BARTLESVILLE   CLEAR     35  17  47 W8        30.18R WCI  29
MUSKOGEE       MOCLDY    35  21  56 W15       30.20R WCI  25
$$

OKZ032-040>043-046>053-073>077-081500-
SOUTH CENTRAL/SOUTHEAST OKLAHOMA

CITY           SKY/WX    TMP DP  RH WIND       PRES   REMARKS
ARDMORE/DWNTWN CLEAR     39  16  38 NW5       30.30S
MCALESTER      PTCLDY    38  18  44 W7        30.23S WCI  33
$$




USA.gov is the U.S. government's official web portal to all federal, state and local government web resources and services.